SES-17 (49332 NORAD) Tracking and Keplerian Element Data

This shows tracking and keplerian element data for the satellite.

Feedback or suggestion? Click here.




ElementValue
Catalog49332
NameSES-17
Epoch Orbit24
Epoch Day337.69622246
Epoch Year2021
RAAN260.9422
Inclination5.1494
Eccentricity0.6297212
Argument of Perigee182.0628
Mean Anonmoly173.4278
Mean Motion1.85598864
Decay Rate-1.25E-06
L11 49332U 21095A 21337.69622246 -.00000125 00000+0 00000+0 0 9998
L22 49332 5.1494 260.9422 6297212 182.0628 173.4278 1.85598864 249

Live tracking and technical data element details for SES-17 (NORAD 49332). SES-17 can be tracked NOW for your location showing map with azimuth and elevation plus other details from your city location.

Track the satellite on the map from your city or location and see movement details for azimuth, elevation, latitude, longitude, range, height, and movement on the map or in text.







IsCatalogInMostPopularTable: catalog: 49332, numindb: 5
Update: records affected: 1



GetName: 49332 SES-17

Hit Count: updated at: Mon, 06 Dec 2021 14:25:34 GMT